Date,TemperatureHighF,TemperatureAvgF,TemperatureLowF,DewpointHighF,DewpointAvgF,DewpointLowF,HumidityHigh,HumidityAvg,HumidityLow,PressureMaxIn,PressureMinIn,WindSpeedMaxMPH,WindSpeedAvgMPH,GustSpeedMaxMPH,PrecipitationSumIn
2013-4-1,39,36,32,36,31,20,96,83,47,29.85,29.44,4,1,11,0.30
2013-4-2,31,23,16,26,12,6,81,64,42,29.62,29.45,7,4,20,0.00
2013-4-3,32,22,10,20,11,2,81,64,48,29.79,29.58,7,4,24,0.00
2013-4-4,44,33,22,28,13,6,82,48,24,30.00,29.79,9,4,12,0.00
2013-4-5,41,35,29,34,30,24,94,82,58,29.86,29.65,4,2,13,0.00
2013-4-6,29,24,18,24,9,4,82,54,35,30.27,29.73,10,5,17,0.00
2013-4-7,37,26,9,31,14,4,89,62,45,30.30,29.86,6,2,9,0.00
2013-4-8,42,35,28,34,30,25,94,81,59,30.15,29.81,6,2,12,0.00
2013-4-9,38,32,25,36,30,23,97,92,80,30.16,29.93,2,0,4,0.07
2013-4-10,43,37,30,34,31,21,98,80,57,29.94,29.86,7,2,9,0.02
2013-4-11,36,31,24,20,14,10,62,50,37,30.19,29.88,9,4,12,0.00
2013-4-12,44,33,21,32,20,16,96,63,37,30.27,30.06,3,1,5,0.00
2013-4-13,39,34,31,35,32,30,98,94,86,30.04,29.85,2,0,3,0.43
2013-4-14,41,35,32,35,33,31,98,93,79,30.18,29.91,2,0,6,0.15
2013-4-15,51,40,26,33,29,26,99,71,40,30.37,30.18,3,1,6,0.00
2013-4-16,47,41,36,41,36,30,95,82,65,30.32,29.73,8,4,20,0.18
2013-4-17,46,41,33,42,28,19,94,63,36,30.34,29.75,9,5,16,0.04
2013-4-18,46,35,22,33,23,18,93,65,33,30.48,29.98,7,1,8,0.08
2013-4-19,67,54,39,54,43,28,86,68,56,29.95,29.49,8,4,12,0.00
2013-4-20,59,46,37,56,40,27,97,82,52,29.97,29.43,6,3,11,0.36
2013-4-21,40,32,23,31,17,10,84,57,30,30.73,30.01,7,3,10,0.01
2013-4-22,53,36,17,22,17,15,94,53,23,30.84,30.64,5,2,10,0.00
2013-4-23,57,42,24,27,19,11,88,46,17,30.64,30.32,6,2,13,0.00
2013-4-24,56,47,37,50,42,29,99,84,55,30.30,29.70,4,1,7,0.00
2013-4-25,53,47,31,50,37,27,98,72,40,30.31,29.65,8,4,10,0.03
2013-4-26,58,41,25,28,25,19,96,61,22,30.48,30.32,4,1,9,0.00
2013-4-27,62,42,24,31,26,22,95,61,22,30.46,30.28,4,1,7,0.00
2013-4-28,68,47,27,33,29,25,96,57,22,30.35,30.20,4,1,9,0.00
2013-4-29,72,52,30,39,32,28,93,53,20,30.28,30.16,4,1,4,0.00
2013-4-30,74,56,32,42,34,28,88,50,20,30.35,30.24,5,1,14,0.00